Вернуться в каталог

FENGYUN 1C DEB

АктивенPO
NORAD 30008·DEBRIS·🇨🇳 China

Запущен May 10, 1999 с Taiyuan Satellite Launch Center

Loading…

Ближайшие Пролёты (ближайшие 24 часа)

TLE

СвежийSource: Space-Track

Эпоха: Sep 14, 2026, 22:53 UTC

1 30008U 99025MH  26257.95396081  .00009609  00000-0  15128-2 0  9992
2 30008  99.3837 260.1505 0037402  69.6350 320.8161 14.72281959 31188

Отслеживайте FENGYUN 1C DEB в реальном времени с AllMySat

Download on the App Store